QPF
0.00 0.00 0.00 0.00 0.00 0.00 0.00 0.00 0.00 0.00 0.00 0.00 0.01 0.01 0.01 0.01 0.01 0.01 0.01 0.02 0.02 0.02 0.03 0.03 0.03 0.03 0.03 0.03 0.03 0.04 0.04 0.03 0.03 0.02 0.02 0.02 0.04 0.04 0.04 0.04 0.04 0.03 0.01 0.01
0.00 0.00 0.00 0.00 0.00 0.00 0.00 0.00 0.00 0.00 0.00 0.00 0.01 0.01 0.01 0.01 0.01 0.01 0.01 0.01 0.01 0.02 0.03 0.03 0.04 0.03 0.03 0.05 0.06 0.05 0.04 0.02 0.02 0.02 0.02 0.04 0.04 0.04 0.04 0.03 0.02 0.01 0.01 0.00
0.00 0.00 0.00 0.00 0.00 0.00 0.00 0.00 0.00 0.00 0.00 0.00 0.00 0.01 0.01 0.01 0.01 0.01 0.01 0.01 0.02 0.02 0.02 0.03 0.03 0.03 0.03 0.03 0.04 0.04 0.03 0.02 0.02 0.02 0.02 0.03 0.04 0.03 0.03 0.02 0.02 0.01 0.01 0.01
0.00 0.00 0.00 0.00 0.00 0.00 0.00 0.00 0.00 0.00 0.00 0.00 0.00 0.00 0.00 0.01 0.01 0.01 0.01 0.01 0.01 0.02 0.03 0.03 0.02 0.01 0.01 0.01 0.01 0.02 0.02 0.02 0.02 0.03 0.03 0.04 0.03 0.03 0.03 0.03 0.04 0.04 0.03 0.02
0.00 0.00 0.00 0.00 0.01 0.01 0.01 0.00 0.00 0.00 0.00 0.00 0.00 0.00 0.00 0.00 0.01 0.01 0.01 0.01 0.02 0.03 0.03 0.02 0.01 0.01 0.00 0.00 0.01 0.01 0.02 0.02 0.03 0.05 0.05 0.04 0.03 0.03 0.03 0.04 0.05 0.05 0.04 0.03
0.00 0.00 0.00 0.00 0.01 0.01 0.00 0.00 0.00 0.00 0.00 0.00 0.00 0.00 0.00 0.01 0.01 0.01 0.03 0.04 0.03 0.03 0.02 0.01 0.01 0.01 0.01 0.01 0.02 0.02 0.03 0.03 0.03 0.05 0.08 0.08 0.07 0.05 0.05 0.05 0.05 0.05 0.04 0.03
0.00 0.00 0.01 0.01 0.01 0.00 0.01 0.01 0.00 0.01 0.01 0.01 0.01 0.00 0.01 0.01 0.01 0.03 0.05 0.07 0.04 0.03 0.02 0.01 0.02 0.02 0.02 0.02 0.03 0.03 0.03 0.04 0.04 0.06 0.09 0.11 0.12 0.11 0.10 0.10 0.08 0.07 0.06 0.05
0.01 0.01 0.01 0.01 0.01 0.01 0.01 0.01 0.01 0.02 0.02 0.02 0.01 0.01 0.01 0.01 0.01 0.02 0.04 0.05 0.03 0.03 0.03 0.03 0.03 0.03 0.03 0.02 0.02 0.03 0.02 0.03 0.05 0.07 0.10 0.12 0.14 0.17 0.17 0.14 0.11 0.09 0.07 0.06
0.02 0.02 0.01 0.01 0.02 0.02 0.03 0.02 0.03 0.03 0.02 0.02 0.02 0.01 0.01 0.01 0.01 0.01 0.02 0.03 0.02 0.03 0.03 0.03 0.03 0.03 0.02 0.01 0.02 0.02 0.03 0.03 0.04 0.04 0.06 0.07 0.08 0.11 0.12 0.12 0.10 0.08 0.06 0.04
0.02 0.02 0.02 0.02 0.03 0.04 0.05 0.05 0.04 0.03 0.02 0.01 0.02 0.02 0.01 0.01 0.01 0.01 0.02 0.02 0.02 0.03 0.03 0.02 0.01 0.01 0.01 0.01 0.02 0.02 0.02 0.02 0.02 0.02 0.02 0.03 0.02 0.03 0.03 0.03 0.04 0.04 0.04 0.03
0.02 0.02 0.02 0.02 0.04 0.06 0.04 0.03 0.04 0.02 0.02 0.02 0.02 0.01 0.01 0.02 0.02 0.03 0.02 0.02 0.02 0.02 0.02 0.02 0.02 0.01 0.01 0.01 0.01 0.01 0.01 0.02 0.02 0.02 0.02 0.02 0.01 0.01 0.01 0.01 0.02 0.02 0.03 0.03
0.02 0.01 0.01 0.02 0.04 0.04 0.04 0.03 0.01 0.01 0.01 0.01 0.01 0.01 0.02 0.03 0.03 0.03 0.02 0.02 0.02 0.02 0.02 0.02 0.02 0.01 0.01 0.01 0.01 0.01 0.01 0.01 0.01 0.01 0.01 0.01 0.01 0.01 0.01 0.01 0.01 0.01 0.01 0.02
0.02 0.02 0.02 0.03 0.06 0.05 0.05 0.05 0.03 0.02 0.02 0.01 0.02 0.02 0.03 0.03 0.02 0.02 0.02 0.02 0.02 0.02 0.02 0.02 0.01 0.02 0.02 0.02 0.01 0.01 0.01 0.01 0.01 0.01 0.01 0.01 0.01 0.01 0.01 0.02 0.01 0.00 0.00 0.01
0.02 0.02 0.03 0.04 0.07 0.07 0.07 0.07 0.06 0.05 0.04 0.03 0.02 0.02 0.02 0.01 0.01 0.01 0.01 0.02 0.02 0.02 0.02 0.01 0.01 0.01 0.01 0.02 0.02 0.02 0.01 0.02 0.02 0.02 0.01 0.02 0.02 0.02 0.02 0.02 0.01 0.01 0.01 0.01
0.02 0.02 0.04 0.06 0.07 0.09 0.08 0.07 0.07 0.05 0.04 0.04 0.03 0.02 0.02 0.02 0.02 0.02 0.01 0.01 0.01 0.01 0.01 0.01 0.01 0.01 0.01 0.01 0.02 0.02 0.02 0.02 0.02 0.02 0.02 0.02 0.03 0.02 0.02 0.02 0.02 0.02 0.02 0.02
0.02 0.03 0.07 0.09 0.09 0.09 0.08 0.06 0.06 0.05 0.03 0.02 0.02 0.02 0.02 0.03 0.03 0.03 0.03 0.02 0.02 0.02 0.02 0.02 0.02 0.02 0.02 0.02 0.02 0.02 0.02 0.03 0.02 0.03 0.03 0.03 0.03 0.02 0.02 0.02 0.03 0.03 0.02 0.02
0.01 0.03 0.06 0.09 0.08 0.08 0.06 0.04 0.03 0.03 0.03 0.03 0.03 0.03 0.03 0.04 0.05 0.04 0.03 0.02 0.02 0.01 0.01 0.01 0.01 0.02 0.02 0.02 0.02 0.03 0.04 0.04 0.03 0.03 0.04 0.03 0.03 0.03 0.02 0.02 0.02 0.02 0.02 0.02
0.01 0.01 0.01 0.03 0.04 0.05 0.04 0.04 0.03 0.03 0.03 0.03 0.04 0.05 0.05 0.08 0.08 0.07 0.04 0.03 0.03 0.02 0.01 0.01 0.01 0.01 0.01 0.01 0.02 0.02 0.02 0.03 0.03 0.03 0.03 0.04 0.04 0.03 0.03 0.02 0.02 0.02 0.02 0.03
0.01 0.01 0.01 0.01 0.02 0.03 0.03 0.03 0.02 0.02 0.02 0.02 0.04 0.07 0.08 0.08 0.10 0.09 0.06 0.05 0.04 0.04 0.03 0.02 0.02 0.02 0.01 0.01 0.01 0.02 0.02 0.03 0.03 0.03 0.04 0.04 0.05 0.04 0.03 0.02 0.02 0.03 0.03 0.03
0.01 0.01 0.02 0.01 0.01 0.02 0.02 0.02 0.01 0.01 0.01 0.01 0.02 0.05 0.06 0.05 0.05 0.06 0.05 0.05 0.04 0.03 0.03 0.03 0.02 0.02 0.02 0.01 0.02 0.02 0.02 0.03 0.02 0.04 0.05 0.05 0.05 0.03 0.03 0.03 0.02 0.02 0.03 0.04
0.03 0.02 0.02 0.02 0.02 0.02 0.01 0.01 0.01 0.01 0.01 0.01 0.01 0.03 0.04 0.04 0.03 0.03 0.03 0.03 0.03 0.03 0.03 0.03 0.03 0.03 0.02 0.02 0.02 0.02 0.02 0.02 0.03 0.03 0.04 0.05 0.05 0.04 0.04 0.03 0.03 0.04 0.04 0.05
0.02 0.02 0.01 0.01 0.01 0.01 0.01 0.00 0.01 0.01 0.01 0.01 0.01 0.02 0.02 0.01 0.01 0.01 0.01 0.01 0.02 0.02 0.02 0.03 0.04 0.04 0.05 0.04 0.02 0.02 0.02 0.03 0.04 0.04 0.04 0.05 0.05 0.04 0.04 0.05 0.05 0.06 0.06 0.05
0.02 0.01 0.00 0.00 0.00 0.00 0.00 0.01 0.01 0.01 0.01 0.01 0.01 0.02 0.02 0.02 0.01 0.01 0.01 0.02 0.02 0.03 0.03 0.05 0.08 0.07 0.06 0.04 0.03 0.04 0.04 0.03 0.03 0.04 0.05 0.05 0.05 0.05 0.06 0.06 0.06 0.05 0.05 0.04
0.02 0.01 0.01 0.00 0.00 0.00 0.00 0.01 0.02 0.01 0.01 0.01 0.02 0.02 0.02 0.02 0.02 0.02 0.03 0.04 0.04 0.04 0.04 0.06 0.09 0.07 0.05 0.04 0.04 0.05 0.05 0.04 0.04 0.05 0.04 0.04 0.04 0.04 0.04 0.04 0.04 0.04 0.04 0.03
0.03 0.02 0.01 0.01 0.01 0.01 0.01 0.02 0.02 0.01 0.02 0.02 0.02 0.02 0.02 0.03 0.03 0.03 0.03 0.03 0.03 0.02 0.03 0.04 0.05 0.07 0.06 0.04 0.04 0.04 0.04 0.04 0.04 0.04 0.03 0.03 0.03 0.03 0.03 0.02 0.03 0.04 0.04 0.04
0.02 0.02 0.01 0.01 0.01 0.01 0.02 0.02 0.03 0.03 0.03 0.03 0.03 0.03 0.03 0.04 0.03 0.02 0.01 0.01 0.02 0.02 0.03 0.04 0.04 0.05 0.05 0.05 0.04 0.04 0.03 0.04 0.04 0.04 0.03 0.03 0.03 0.03 0.03 0.03 0.03 0.04 0.04 0.04
0.01 0.01 0.01 0.01 0.01 0.01 0.02 0.03 0.03 0.04 0.05 0.04 0.04 0.04 0.03 0.03 0.02 0.02 0.02 0.02 0.02 0.03 0.03 0.03 0.03 0.03 0.03 0.04 0.05 0.04 0.04 0.04 0.03 0.03 0.03 0.03 0.03 0.03 0.03 0.03 0.03 0.04 0.05 0.05
MSLP
1006.77 1006.97 1007.27 1007.67 1008.16 1008.72 1009.29 1009.85 1010.34 1010.75 1011.06 1011.29 1011.46 1011.61 1011.75 1011.92 1012.10 1012.29 1012.47 1012.59 1012.64 1012.60 1012.47 1012.28 1012.07 1011.87 1011.73 1011.70 1011.78 1011.96 1012.22 1012.52 1012.81 1013.04 1013.18 1013.21 1013.14 1012.99 1012.79 1012.57 1012.37 1012.21 1012.11 1012.06
1007.70 1007.87 1008.07 1008.31 1008.60 1008.94 1009.31 1009.70 1010.10 1010.50 1010.90 1011.28 1011.66 1012.04 1012.41 1012.77 1013.09 1013.34 1013.52 1013.58 1013.53 1013.37 1013.12 1012.83 1012.53 1012.27 1012.10 1012.03 1012.08 1012.22 1012.44 1012.67 1012.88 1013.03 1013.10 1013.06 1012.93 1012.73 1012.50 1012.26 1012.05 1011.88 1011.76 1011.68
1008.63 1008.77 1008.89 1009.01 1009.14 1009.30 1009.51 1009.77 1010.09 1010.48 1010.92 1011.42 1011.95 1012.50 1013.03 1013.52 1013.93 1014.24 1014.41 1014.43 1014.31 1014.08 1013.76 1013.41 1013.07 1012.79 1012.60 1012.52 1012.54 1012.64 1012.79 1012.95 1013.07 1013.13 1013.10 1012.99 1012.80 1012.56 1012.30 1012.05 1011.83 1011.65 1011.52 1011.43
1009.49 1009.60 1009.66 1009.68 1009.70 1009.74 1009.84 1010.01 1010.28 1010.65 1011.12 1011.68 1012.30 1012.95 1013.58 1014.15 1014.61 1014.94 1015.11 1015.12 1014.97 1014.71 1014.38 1014.02 1013.69 1013.42 1013.23 1013.15 1013.15 1013.21 1013.30 1013.37 1013.40 1013.36 1013.24 1013.04 1012.80 1012.52 1012.24 1011.99 1011.77 1011.59 1011.46 1011.35
1010.20 1010.28 1010.29 1010.27 1010.22 1010.20 1010.23 1010.36 1010.59 1010.95 1011.44 1012.02 1012.69 1013.38 1014.05 1014.65 1015.14 1015.48 1015.65 1015.66 1015.52 1015.27 1014.97 1014.64 1014.35 1014.11 1013.96 1013.88 1013.87 1013.89 1013.91 1013.90 1013.84 1013.71 1013.51 1013.25 1012.96 1012.66 1012.37 1012.12 1011.90 1011.73 1011.59 1011.45
1010.71 1010.76 1010.75 1010.70 1010.65 1010.61 1010.64 1010.75 1010.99 1011.35 1011.84 1012.43 1013.10 1013.79 1014.46 1015.06 1015.54 1015.88 1016.05 1016.08 1015.97 1015.76 1015.51 1015.25 1015.01 1014.83 1014.71 1014.64 1014.62 1014.61 1014.58 1014.50 1014.36 1014.16 1013.90 1013.60 1013.28 1012.97 1012.68 1012.44 1012.23 1012.06 1011.91 1011.75
1011.01 1011.03 1011.02 1010.98 1010.95 1010.95 1011.01 1011.15 1011.41 1011.79 1012.28 1012.87 1013.52 1014.19 1014.83 1015.40 1015.86 1016.18 1016.36 1016.41 1016.34 1016.19 1016.00 1015.80 1015.63 1015.50 1015.42 1015.37 1015.34 1015.30 1015.22 1015.10 1014.91 1014.67 1014.37 1014.05 1013.72 1013.41 1013.14 1012.91 1012.71 1012.54 1012.38 1012.19
1011.10 1011.11 1011.11 1011.11 1011.14 1011.21 1011.33 1011.54 1011.85 1012.25 1012.75 1013.32 1013.95 1014.57 1015.17 1015.70 1016.12 1016.43 1016.61 1016.67 1016.64 1016.54 1016.41 1016.28 1016.16 1016.08 1016.02 1015.99 1015.95 1015.89 1015.79 1015.63 1015.42 1015.15 1014.84 1014.52 1014.21 1013.92 1013.67 1013.46 1013.27 1013.10 1012.93 1012.71
1011.01 1011.03 1011.07 1011.14 1011.25 1011.41 1011.62 1011.91 1012.27 1012.71 1013.22 1013.78 1014.36 1014.94 1015.48 1015.96 1016.34 1016.62 1016.80 1016.87 1016.87 1016.81 1016.73 1016.65 1016.57 1016.52 1016.48 1016.45 1016.40 1016.33 1016.21 1016.04 1015.82 1015.55 1015.26 1014.96 1014.67 1014.41 1014.19 1013.99 1013.82 1013.65 1013.46 1013.22
1010.81 1010.87 1010.97 1011.12 1011.33 1011.58 1011.89 1012.26 1012.68 1013.15 1013.67 1014.20 1014.75 1015.27 1015.76 1016.18 1016.52 1016.77 1016.94 1017.02 1017.04 1017.01 1016.96 1016.90 1016.85 1016.81 1016.77 1016.73 1016.67 1016.59 1016.46 1016.29 1016.08 1015.83 1015.56 1015.29 1015.04 1014.80 1014.60 1014.41 1014.25 1014.07 1013.87 1013.62
1010.60 1010.71 1010.88 1011.12 1011.42 1011.77 1012.17 1012.61 1013.07 1013.56 1014.07 1014.58 1015.08 1015.55 1015.98 1016.34 1016.64 1016.87 1017.02 1017.10 1017.13 1017.12 1017.09 1017.04 1016.99 1016.95 1016.90 1016.85 1016.78 1016.68 1016.55 1016.38 1016.18 1015.96 1015.72 1015.47 1015.24 1015.03 1014.83 1014.65 1014.48 1014.30 1014.09 1013.83
1010.45 1010.62 1010.87 1011.19 1011.58 1012.00 1012.46 1012.94 1013.43 1013.92 1014.41 1014.88 1015.32 1015.74 1016.11 1016.43 1016.69 1016.89 1017.04 1017.12 1017.16 1017.16 1017.13 1017.09 1017.04 1016.98 1016.92 1016.84 1016.76 1016.64 1016.51 1016.34 1016.15 1015.94 1015.71 1015.49 1015.26 1015.05 1014.85 1014.67 1014.48 1014.28 1014.06 1013.80
1010.41 1010.65 1010.97 1011.36 1011.80 1012.27 1012.76 1013.26 1013.74 1014.21 1014.65 1015.07 1015.47 1015.82 1016.15 1016.43 1016.66 1016.85 1016.99 1017.08 1017.13 1017.14 1017.12 1017.08 1017.02 1016.95 1016.87 1016.77 1016.66 1016.53 1016.38 1016.21 1016.02 1015.81 1015.59 1015.36 1015.13 1014.90 1014.68 1014.47 1014.25 1014.03 1013.80 1013.54
1010.48 1010.79 1011.16 1011.59 1012.07 1012.56 1013.05 1013.53 1013.98 1014.40 1014.80 1015.16 1015.50 1015.81 1016.09 1016.34 1016.57 1016.75 1016.90 1017.01 1017.08 1017.11 1017.10 1017.06 1016.99 1016.91 1016.80 1016.68 1016.55 1016.40 1016.23 1016.04 1015.84 1015.61 1015.38 1015.13 1014.87 1014.61 1014.36 1014.10 1013.85 1013.61 1013.35 1013.09
1010.65 1011.00 1011.42 1011.87 1012.35 1012.83 1013.29 1013.73 1014.14 1014.51 1014.84 1015.15 1015.44 1015.71 1015.96 1016.20 1016.43 1016.63 1016.80 1016.93 1017.03 1017.08 1017.08 1017.05 1016.98 1016.88 1016.76 1016.61 1016.45 1016.27 1016.08 1015.87 1015.64 1015.39 1015.13 1014.85 1014.56 1014.26 1013.96 1013.66 1013.37 1013.09 1012.82 1012.56
1010.86 1011.24 1011.67 1012.12 1012.59 1013.04 1013.46 1013.85 1014.20 1014.52 1014.80 1015.06 1015.31 1015.56 1015.81 1016.05 1016.29 1016.52 1016.72 1016.89 1017.01 1017.09 1017.11 1017.09 1017.01 1016.90 1016.76 1016.59 1016.40 1016.19 1015.97 1015.72 1015.47 1015.19 1014.89 1014.58 1014.25 1013.91 1013.57 1013.23 1012.90 1012.59 1012.30 1012.03
1011.04 1011.43 1011.87 1012.31 1012.75 1013.16 1013.54 1013.89 1014.19 1014.46 1014.70 1014.94 1015.17 1015.42 1015.68 1015.94 1016.21 1016.47 1016.71 1016.92 1017.07 1017.17 1017.21 1017.18 1017.11 1016.98 1016.81 1016.61 1016.39 1016.15 1015.90 1015.63 1015.34 1015.04 1014.71 1014.37 1014.01 1013.64 1013.26 1012.90 1012.54 1012.21 1011.91 1011.64
1011.15 1011.55 1011.98 1012.40 1012.82 1013.20 1013.55 1013.85 1014.12 1014.37 1014.60 1014.83 1015.07 1015.34 1015.62 1015.92 1016.23 1016.52 1016.80 1017.03 1017.21 1017.33 1017.37 1017.34 1017.25 1017.11 1016.91 1016.69 1016.44 1016.17 1015.88 1015.59 1015.28 1014.95 1014.61 1014.25 1013.88 1013.50 1013.11 1012.73 1012.37 1012.03 1011.72 1011.44
1011.18 1011.59 1012.01 1012.42 1012.81 1013.17 1013.50 1013.79 1014.06 1014.30 1014.55 1014.80 1015.07 1015.37 1015.69 1016.03 1016.37 1016.70 1017.00 1017.26 1017.45 1017.56 1017.60 1017.56 1017.45 1017.27 1017.05 1016.79 1016.51 1016.22 1015.91 1015.60 1015.28 1014.95 1014.61 1014.26 1013.89 1013.52 1013.14 1012.77 1012.42 1012.08 1011.78 1011.51
1011.17 1011.58 1011.99 1012.40 1012.78 1013.14 1013.46 1013.76 1014.04 1014.31 1014.59 1014.88 1015.19 1015.53 1015.89 1016.27 1016.64 1017.00 1017.31 1017.57 1017.75 1017.86 1017.87 1017.81 1017.66 1017.46 1017.21 1016.93 1016.62 1016.31 1015.99 1015.67 1015.36 1015.04 1014.71 1014.38 1014.04 1013.70 1013.35 1013.01 1012.68 1012.37 1012.08 1011.82
1011.18 1011.59 1012.00 1012.40 1012.79 1013.15 1013.49 1013.82 1014.13 1014.44 1014.76 1015.09 1015.45 1015.84 1016.23 1016.64 1017.03 1017.39 1017.70 1017.94 1018.10 1018.17 1018.16 1018.05 1017.88 1017.65 1017.37 1017.06 1016.74 1016.41 1016.10 1015.78 1015.48 1015.19 1014.89 1014.60 1014.30 1014.00 1013.70 1013.40 1013.11 1012.83 1012.56 1012.31
1011.26 1011.68 1012.09 1012.50 1012.89 1013.27 1013.64 1013.99 1014.34 1014.70 1015.06 1015.45 1015.84 1016.26 1016.68 1017.09 1017.47 1017.81 1018.10 1018.31 1018.43 1018.46 1018.40 1018.27 1018.06 1017.80 1017.50 1017.18 1016.85 1016.52 1016.21 1015.92 1015.64 1015.37 1015.11 1014.86 1014.61 1014.36 1014.10 1013.85 1013.60 1013.36 1013.12 1012.90
1011.46 1011.88 1012.30 1012.72 1013.12 1013.52 1013.92 1014.30 1014.69 1015.09 1015.49 1015.90 1016.33 1016.75 1017.17 1017.56 1017.92 1018.22 1018.46 1018.62 1018.69 1018.68 1018.58 1018.40 1018.17 1017.88 1017.57 1017.25 1016.92 1016.61 1016.32 1016.04 1015.79 1015.55 1015.33 1015.12 1014.91 1014.70 1014.49 1014.28 1014.07 1013.87 1013.66 1013.46
1011.77 1012.20 1012.63 1013.05 1013.47 1013.89 1014.31 1014.73 1015.14 1015.56 1015.99 1016.42 1016.84 1017.25 1017.64 1018.00 1018.30 1018.55 1018.73 1018.82 1018.84 1018.77 1018.63 1018.42 1018.17 1017.88 1017.57 1017.25 1016.94 1016.65 1016.38 1016.13 1015.90 1015.69 1015.49 1015.30 1015.12 1014.95 1014.77 1014.59 1014.42 1014.24 1014.06 1013.88
1012.16 1012.59 1013.03 1013.46 1013.90 1014.33 1014.77 1015.21 1015.64 1016.08 1016.50 1016.92 1017.32 1017.70 1018.04 1018.33 1018.57 1018.75 1018.85 1018.88 1018.83 1018.71 1018.54 1018.31 1018.05 1017.76 1017.46 1017.17 1016.88 1016.61 1016.36 1016.13 1015.92 1015.73 1015.54 1015.37 1015.20 1015.03 1014.87 1014.71 1014.55 1014.39 1014.24 1014.07
1012.56 1012.99 1013.43 1013.87 1014.32 1014.77 1015.22 1015.67 1016.12 1016.55 1016.96 1017.36 1017.72 1018.04 1018.32 1018.53 1018.69 1018.78 1018.81 1018.77 1018.66 1018.50 1018.30 1018.06 1017.80 1017.52 1017.25 1016.98 1016.72 1016.48 1016.25 1016.03 1015.83 1015.64 1015.46 1015.28 1015.10 1014.93 1014.77 1014.60 1014.45 1014.29 1014.15 1014.00
1012.88 1013.32 1013.76 1014.21 1014.67 1015.13 1015.60 1016.05 1016.50 1016.92 1017.31 1017.67 1017.98 1018.24 1018.44 1018.58 1018.65 1018.66 1018.61 1018.51 1018.35 1018.16 1017.93 1017.69 1017.44 1017.19 1016.94 1016.70 1016.47 1016.25 1016.03 1015.83 1015.63 1015.43 1015.23 1015.03 1014.83 1014.64 1014.45 1014.28 1014.11 1013.95 1013.81 1013.67
Thickness
5748 5758 5761 5762 5763 5761 5760 5755 5750 5758 5764 5780 5788 5793 5795 5796 5795 5793 5791 5790 5789 5787 5786 5784 5783 5781 5779 5776 5773 5769 5764 5761 5758 5755 5752 5750 5747 5744 5741 5737 5735 5731 5728 5725
5740 5751 5755 5753 5758 5759 5761 5761 5759 5763 5765 5784 5789 5790 5790 5791 5791 5789 5788 5787 5786 5785 5782 5780 5779 5777 5775 5772 5769 5766 5761 5759 5756 5752 5750 5746 5743 5740 5737 5733 5730 5728 5724 5721
5718 5736 5742 5733 5748 5753 5755 5759 5760 5757 5768 5780 5779 5782 5785 5788 5788 5787 5786 5784 5782 5781 5780 5778 5776 5774 5770 5767 5765 5762 5758 5755 5751 5748 5745 5742 5739 5736 5733 5729 5726 5723 5720 5717
5705 5718 5709 5733 5757 5759 5755 5758 5763 5767 5772 5775 5778 5780 5783 5786 5786 5784 5783 5781 5779 5777 5775 5775 5773 5771 5767 5763 5759 5756 5753 5750 5747 5744 5740 5737 5734 5731 5728 5725 5721 5718 5715 5712
5691 5695 5708 5732 5748 5750 5747 5748 5762 5763 5768 5770 5773 5773 5774 5780 5782 5782 5780 5777 5775 5773 5772 5769 5767 5764 5760 5756 5752 5749 5747 5744 5742 5739 5735 5732 5728 5726 5723 5720 5716 5713 5710 5707
5687 5691 5693 5720 5744 5753 5748 5738 5760 5761 5761 5762 5764 5754 5763 5774 5775 5774 5773 5771 5769 5767 5764 5761 5758 5756 5752 5748 5745 5743 5742 5740 5737 5734 5730 5726 5724 5721 5717 5714 5711 5708 5704 5702
5684 5687 5699 5724 5738 5746 5725 5734 5753 5755 5757 5758 5757 5760 5766 5768 5766 5766 5765 5763 5761 5759 5755 5752 5750 5748 5743 5740 5738 5738 5736 5733 5731 5728 5725 5720 5717 5712 5709 5706 5703 5700 5698 5696
5676 5681 5693 5724 5727 5724 5728 5742 5747 5750 5752 5753 5753 5757 5758 5758 5757 5756 5755 5754 5753 5749 5746 5744 5742 5739 5735 5731 5731 5730 5728 5725 5723 5721 5718 5714 5709 5705 5703 5700 5696 5694 5691 5689
5679 5687 5704 5712 5717 5725 5730 5733 5739 5743 5746 5747 5746 5747 5748 5747 5747 5747 5746 5745 5743 5740 5737 5735 5734 5732 5728 5726 5724 5722 5719 5716 5714 5712 5709 5706 5702 5699 5696 5693 5690 5687 5685 5683
5677 5689 5699 5707 5714 5720 5725 5729 5734 5737 5740 5741 5739 5739 5737 5737 5737 5737 5736 5736 5734 5731 5727 5726 5725 5724 5722 5719 5716 5713 5710 5707 5705 5703 5700 5697 5695 5693 5690 5687 5685 5682 5679 5677
5670 5682 5692 5700 5705 5711 5717 5722 5726 5729 5732 5733 5732 5730 5730 5728 5728 5727 5726 5726 5725 5722 5720 5718 5716 5714 5713 5710 5707 5704 5701 5699 5697 5694 5692 5689 5687 5686 5684 5682 5680 5677 5674 5672
5666 5677 5679 5687 5698 5704 5707 5711 5715 5719 5720 5723 5724 5722 5721 5719 5718 5718 5718 5717 5716 5714 5711 5709 5707 5705 5704 5701 5698 5694 5692 5690 5688 5685 5683 5681 5679 5677 5677 5675 5673 5671 5668 5664
5670 5677 5679 5685 5692 5697 5699 5703 5707 5710 5711 5711 5713 5714 5712 5710 5709 5709 5708 5708 5706 5704 5703 5700 5698 5696 5695 5693 5689 5686 5684 5682 5680 5678 5676 5674 5672 5670 5668 5667 5665 5662 5660 5657
5667 5670 5672 5679 5682 5687 5690 5694 5696 5699 5700 5701 5702 5702 5701 5700 5699 5698 5697 5697 5697 5695 5693 5691 5689 5687 5686 5684 5681 5679 5676 5674 5672 5671 5669 5667 5665 5663 5660 5658 5656 5655 5653 5650
5661 5665 5667 5671 5674 5678 5680 5683 5685 5685 5687 5688 5689 5690 5690 5689 5688 5688 5688 5688 5686 5683 5682 5681 5679 5677 5677 5675 5673 5671 5669 5667 5665 5664 5662 5660 5658 5656 5653 5651 5649 5647 5645 5643
5654 5657 5660 5662 5665 5668 5670 5672 5673 5673 5675 5675 5676 5677 5678 5678 5677 5678 5677 5677 5675 5673 5672 5671 5669 5668 5668 5666 5664 5663 5662 5660 5658 5656 5654 5652 5651 5649 5647 5644 5642 5640 5639 5637
5646 5648 5650 5653 5656 5658 5661 5664 5664 5665 5665 5665 5665 5666 5666 5667 5666 5665 5666 5667 5666 5665 5664 5662 5661 5660 5658 5656 5655 5654 5653 5651 5649 5648 5647 5645 5644 5642 5640 5638 5636 5634 5632 5630
5646 5647 5648 5650 5650 5651 5653 5655 5656 5656 5656 5656 5657 5657 5657 5656 5655 5654 5656 5656 5656 5655 5655 5654 5653 5652 5650 5648 5647 5646 5645 5644 5642 5640 5639 5638 5636 5635 5633 5631 5630 5627 5626 5623
5641 5641 5643 5644 5645 5645 5646 5646 5647 5648 5648 5648 5648 5648 5648 5648 5647 5647 5647 5647 5646 5645 5646 5645 5643 5643 5642 5640 5639 5638 5637 5636 5635 5633 5632 5630 5629 5628 5626 5624 5622 5621 5619 5616
5634 5636 5637 5637 5638 5638 5638 5639 5640 5639 5640 5640 5640 5639 5638 5638 5638 5638 5638 5637 5637 5637 5638 5637 5636 5635 5633 5632 5631 5630 5629 5629 5627 5626 5625 5624 5622 5621 5619 5617 5615 5614 5612 5609
5628 5630 5630 5629 5630 5631 5631 5632 5631 5631 5631 5631 5630 5630 5629 5630 5629 5628 5628 5628 5629 5629 5628 5628 5627 5627 5626 5626 5625 5624 5622 5621 5620 5619 5618 5617 5615 5614 5612 5610 5608 5606 5604 5602
5622 5623 5623 5623 5623 5622 5623 5624 5624 5624 5623 5623 5623 5623 5623 5622 5622 5621 5621 5621 5621 5620 5620 5620 5620 5619 5619 5619 5618 5617 5616 5615 5613 5612 5611 5610 5608 5606 5604 5603 5601 5599 5597 5594
5616 5617 5617 5617 5617 5616 5617 5617 5617 5617 5617 5617 5617 5617 5616 5616 5614 5613 5613 5614 5614 5614 5614 5613 5613 5613 5612 5613 5612 5611 5609 5608 5606 5605 5603 5602 5600 5598 5596 5594 5592 5590 5588 5585
5611 5611 5611 5611 5610 5610 5609 5610 5610 5610 5611 5611 5611 5611 5610 5609 5608 5608 5608 5608 5608 5608 5608 5607 5607 5607 5607 5606 5605 5604 5602 5600 5599 5597 5595 5594 5592 5590 5588 5586 5584 5582 5580 5577
5605 5605 5605 5604 5604 5604 5604 5604 5604 5604 5604 5604 5604 5604 5604 5604 5604 5603 5603 5603 5602 5602 5602 5601 5601 5601 5601 5599 5598 5596 5595 5593 5591 5589 5587 5585 5584 5582 5580 5579 5576 5574 5572 5570
5600 5599 5600 5600 5599 5599 5599 5599 5598 5598 5597 5597 5597 5598 5598 5598 5598 5597 5596 5596 5596 5595 5595 5594 5594 5593 5592 5591 5590 5588 5587 5585 5584 5582 5580 5578 5576 5574 5572 5571 5569 5567 5564 5562
5595 5594 5594 5594 5594 5594 5595 5594 5593 5592 5592 5592 5591 5590 5590 5590 5590 5590 5589 5589 5589 5588 5587 5586 5585 5584 5584 5583 5581 5580 5578 5577 5575 5573 5571 5569 5567 5565 5564 5562 5561 5559 5556 5554